Siren, WI

9:52 AM CST on December 13, 2019 (GMT -0600)
Burnett County

Weather History for KRZN - October, 2019

Change the Weather History Date:

Sunday, October 20, 2019

  Actual Average Record
Temperature  
Mean Temperature 47 °F -  
Max Temperature 65 °F - - ()
Min Temperature 29 °F - - ()
Degree Days  
Heating Degree Days 18    
Moisture  
Dew Point 32 °F    
Average Humidity 61    
Maximum Humidity 97    
Minimum Humidity 24    
Precipitation  
Precipitation 0.00 in - - ()
Sea Level Pressure  
Sea Level Pressure 29.83 in    
Wind  
Wind Speed 1 mph (SE)    
Max Wind Speed 9 mph    
Max Gust Speed -    
Visibility 10 miles    
Events      
Averages and records for this station are not official NWS values.
T = Trace of Precipitation, MM = Missing Value Source: NWS Daily Summary

Daily Weather History Graph

Daily Weather History Graph

Search for Another Location

Airport or City:

Astronomy

Oct. 20, 2019 Rise Set
Actual Time 7:32 AM CDT 6:15 PM CDT
Civil Twilight 7:02 AM CDT 6:45 PM CDT
Nautical Twilight 6:27 AM CDT 7:20 PM CDT
Astronomical Twilight 5:53 AM CDT 7:54 PM CDT
Moon 11:12 PM CDT (10/20) 2:13 PM CDT (10/20)
Length of Visible Light 11h 43m
Length of Day
10h 42m
Waning Gibbous, 59% of the Moon is Illuminated
Oct 20
Waning Gibbous
Oct 21
Last Quarter
Oct 27
New
Nov 4
First Quarter
Nov 12
Full

Hourly Weather History & Observations

Time (CDT) Temp. Dew Point Humidity Pressure Visibility Wind Dir Wind Speed Gust Speed Precip Events Conditions
12:15 AM 36.9 °F 34.7 °F 92% 29.73 in 7.0 mi Calm Calm - N/A   Clear
12:35 AM 36.1 °F 34.7 °F 94% 29.73 in 10.0 mi Calm Calm - N/A   Clear
12:55 AM 35.2 °F 34.0 °F 95% 29.73 in 10.0 mi Calm Calm - N/A   Clear
1:15 AM 35.1 °F 33.3 °F 93% 29.73 in 10.0 mi Calm Calm - N/A   Clear
1:35 AM 34.9 °F 33.1 °F 93% 29.74 in 2.0 mi Calm Calm - N/A   Clear
1:55 AM 34.2 °F 32.7 °F 94% 29.74 in 7.0 mi Calm Calm - N/A   Clear
2:15 AM 34.2 °F 32.4 °F 93% 29.75 in 10.0 mi Calm Calm - N/A   Clear
2:35 AM 34.2 °F 32.4 °F 93% 29.75 in 10.0 mi Calm Calm - N/A   Clear
2:55 AM 32.9 °F 32.0 °F 96% 29.75 in 3.0 mi Calm Calm - N/A   Clear
3:15 AM 32.9 °F 32.0 °F 96% 29.75 in 10.0 mi Calm Calm - N/A   Clear
3:35 AM 33.3 °F 32.0 °F 95% 29.76 in 10.0 mi Calm Calm - N/A   Clear
3:55 AM 32.0 °F 31.1 °F 96% 29.76 in 10.0 mi Calm Calm - N/A   Clear
4:15 AM 32.0 °F 31.1 °F 96% 29.76 in 10.0 mi Calm Calm - N/A   Clear
4:35 AM 31.8 °F 30.6 °F 95% 29.77 in 10.0 mi Calm Calm - N/A   Clear
4:55 AM 32.0 °F 30.9 °F 96% 29.77 in 10.0 mi Calm Calm - N/A   Clear
5:15 AM 31.6 °F 30.2 °F 94% 29.78 in 10.0 mi Calm Calm - N/A   Clear
5:35 AM 30.9 °F 29.8 °F 96% 29.79 in 10.0 mi Calm Calm - N/A   Clear
5:55 AM 30.9 °F 29.7 °F 95% 29.80 in 10.0 mi Calm Calm - N/A   Clear
6:15 AM 30.9 °F 30.0 °F 96% 29.80 in 10.0 mi Calm Calm - N/A   Clear
6:35 AM 30.2 °F 29.5 °F 97% 29.81 in 10.0 mi Calm Calm - N/A   Clear
6:55 AM 30.2 °F 29.5 °F 97% 29.81 in 10.0 mi Calm Calm - N/A   Clear
7:15 AM 29.3 °F 28.2 °F 96% 29.81 in 10.0 mi Calm Calm - N/A   Clear
7:35 AM 30.4 °F 29.7 °F 97% 29.83 in 10.0 mi Calm Calm - N/A   Clear
7:55 AM 29.3 °F 28.2 °F 96% 29.83 in 10.0 mi Calm Calm - N/A   Clear
8:15 AM 30.4 °F 29.3 °F 96% 29.84 in 10.0 mi Calm Calm - N/A   Clear
8:35 AM 32.2 °F 31.1 °F 96% 29.85 in 10.0 mi Calm Calm - N/A   Clear
8:55 AM 35.4 °F 34.0 °F 94% 29.85 in 10.0 mi Calm Calm - N/A   Clear
9:15 AM 39.4 °F 36.7 °F 90% 29.86 in 10.0 mi Calm Calm - N/A   Clear
9:35 AM 44.1 °F 37.6 °F 78% 29.86 in 10.0 mi Calm Calm - N/A   Clear
9:55 AM 47.8 °F 36.7 °F 65% 29.87 in 10.0 mi Calm Calm - N/A   Clear
10:15 AM 50.7 °F 36.9 °F 59% 29.88 in 10.0 mi SSE 3.5 mph - N/A   Clear
10:35 AM 52.9 °F 36.3 °F 53% 29.87 in 10.0 mi Calm Calm - N/A   Clear
10:55 AM 54.3 °F 36.3 °F 51% 29.87 in 10.0 mi Calm Calm - N/A   Clear
11:15 AM 56.3 °F 36.0 °F 46% 29.87 in 10.0 mi Calm Calm - N/A   Clear
11:35 AM 58.1 °F 35.8 °F 43% 29.87 in 10.0 mi Calm Calm - N/A   Clear
11:55 AM 59.9 °F 34.9 °F 39% 29.87 in 10.0 mi SW 3.5 mph - N/A   Clear
12:15 PM 60.6 °F 34.3 °F 37% 29.87 in 10.0 mi Calm Calm - N/A   Clear
12:35 PM 61.5 °F 33.6 °F 35% 29.87 in 10.0 mi Calm Calm - N/A   Clear
12:55 PM 62.8 °F 32.4 °F 32% 29.87 in 10.0 mi SW 4.6 mph - N/A   Clear
1:15 PM 64.0 °F 30.4 °F 28% 29.87 in 10.0 mi SSW 6.9 mph - N/A   Clear
1:35 PM 64.4 °F 28.8 °F 26% 29.86 in 10.0 mi SSE 8.1 mph - N/A   Clear
1:55 PM 65.3 °F 29.3 °F 26% 29.86 in 10.0 mi South 8.1 mph - N/A   Clear
2:15 PM 64.6 °F 28.4 °F 26% 29.86 in 10.0 mi South 4.6 mph - N/A   Clear
2:35 PM 64.4 °F 27.1 °F 24% 29.86 in 10.0 mi SSE 9.2 mph - N/A   Clear
2:55 PM 64.8 °F 28.0 °F 25% 29.86 in 10.0 mi SW 5.8 mph - N/A   Clear
3:15 PM 64.4 °F 27.1 °F 24% 29.86 in 10.0 mi South 3.5 mph - N/A   Clear
3:35 PM 64.4 °F 28.0 °F 25% 29.86 in 10.0 mi South 5.8 mph - N/A   Clear
3:55 PM 63.7 °F 27.1 °F 25% 29.86 in 10.0 mi SE 4.6 mph - N/A   Clear
4:15 PM 63.3 °F 27.5 °F 26% 29.86 in 10.0 mi South 3.5 mph - N/A   Clear
4:35 PM 62.6 °F 28.6 °F 28% 29.86 in 10.0 mi Calm Calm - N/A   Clear
4:55 PM 62.6 °F 29.7 °F 29% 29.87 in 10.0 mi SSE 4.6 mph - N/A   Clear
5:15 PM 61.5 °F 30.2 °F 31% 29.86 in 10.0 mi SE 3.5 mph - N/A   Clear
5:35 PM 60.4 °F 30.9 °F 33% 29.86 in 10.0 mi SE 3.5 mph - N/A   Clear
5:55 PM 59.4 °F 31.5 °F 35% 29.85 in 10.0 mi ESE 4.6 mph - N/A   Clear
6:15 PM 58.5 °F 31.3 °F 36% 29.85 in 10.0 mi SE 4.6 mph - N/A   Clear
6:35 PM 58.5 °F 32.0 °F 37% 29.85 in 10.0 mi SE 4.6 mph - N/A   Clear
6:55 PM 57.7 °F 32.0 °F 38% 29.85 in 10.0 mi SE 5.8 mph - N/A   Clear
7:15 PM 57.2 °F 32.0 °F 38% 29.86 in 10.0 mi SE 4.6 mph - N/A   Clear
7:35 PM 56.5 °F 32.0 °F 39% 29.86 in 10.0 mi Calm Calm - N/A   Clear
7:55 PM 55.9 °F 32.2 °F 41% 29.86 in 10.0 mi ESE 3.5 mph - N/A   Clear
8:15 PM 55.4 °F 32.5 °F 42% 29.86 in 10.0 mi ESE 4.6 mph - N/A   Mostly Cloudy
8:35 PM 55.6 °F 32.5 °F 42% 29.85 in 10.0 mi ESE 5.8 mph - N/A   Overcast
8:55 PM 55.8 °F 32.9 °F 42% 29.85 in 10.0 mi ESE 5.8 mph - N/A   Overcast
9:15 PM 55.4 °F 33.4 °F 43% 29.86 in 10.0 mi SE 4.6 mph - N/A   Overcast
9:35 PM 55.0 °F 33.8 °F 45% 29.86 in 10.0 mi ESE 4.6 mph - N/A   Overcast
9:55 PM 54.7 °F 34.0 °F 46% 29.86 in 10.0 mi ESE 5.8 mph - N/A   Overcast
10:15 PM 54.5 °F 34.2 °F 46% 29.87 in 10.0 mi ESE 3.5 mph - N/A   Overcast
10:35 PM 54.1 °F 34.2 °F 47% 29.86 in 10.0 mi ESE 3.5 mph - N/A   Overcast
10:55 PM 53.6 °F 34.7 °F 49% 29.85 in 10.0 mi ESE 5.8 mph - N/A   Scattered Clouds
11:15 PM 53.6 °F 34.7 °F 49% 29.84 in 10.0 mi ESE 4.6 mph - N/A   Clear
11:35 PM 53.1 °F 34.9 °F 50% 29.84 in 10.0 mi ESE 4.6 mph - N/A   Clear
11:55 PM 53.1 °F 34.9 °F 50% 29.83 in 10.0 mi ESE 5.8 mph - N/A   Clear